Terug naar catalogus

STARLINK-11261

ActiefCommunicatieVLEO
NORAD 60724·PAYLOAD·🇺🇸 United States

Gelanceerd Aug 28, 2024 vanaf Cape Canaveral Space Force Station

Loading…

Volgende Passages (komende 24 uur)

TLE

VersSource: CelesTrak SupGP

Epoch: Sep 14, 2026, 22:44 UTC

1 60724C 24152E   26257.94770833  .00061836  00000+0  50932-3 0  2578
2 60724  53.1567 263.4275 0001135  91.7334  73.0594 15.69680744    13

Volg STARLINK-11261 in realtime met AllMySat

Download on the App Store